| time (UTC) | temp F | wind direction | speed MPH | gust MPH | rain 1hr in | rain 24hr in | rain mn in | humidity % | barometer mb |
| 20260903201517 | 86 | 222 | 7.0 | 14.0 | 0.00 | 0.00 | 0.00 | 25 | 1020.2 |
| 20260903200014 | 86 | 241 | 4.0 | 12.0 | 0.00 | 0.00 | 0.00 | 25 | 1020.4 |
| 20260903194513 | 85 | 234 | 9.0 | 17.0 | 0.00 | 0.00 | 0.00 | 25 | 1020.6 |
| 20260903193011 | 86 | 265 | 5.0 | 15.0 | 0.00 | 0.00 | 0.00 | 25 | 1020.9 |
| 20260903191510 | 85 | 243 | 10.0 | 14.0 | 0.00 | 0.00 | 0.00 | 25 | 1021.0 |
| 20260903190007 | 84 | 238 | 3.0 | 13.0 | 0.00 | 0.00 | 0.00 | 26 | 1021.2 |
| 20260903184504 | 85 | 321 | 2.0 | 11.0 | 0.00 | 0.00 | 0.00 | 26 | 1021.4 |
| 20260903183103 | 84 | 229 | 6.0 | 12.0 | 0.00 | 0.00 | 0.00 | 28 | 1021.6 |
| 20260903181559 | 83 | 210 | 5.0 | 11.0 | 0.00 | 0.00 | 0.00 | 29 | 1021.7 |
| 20260903180053 | 82 | 144 | 3.0 | 7.0 | 0.00 | 0.00 | 0.00 | 29 | 1021.9 |
| 20260903174549 | 80 | 239 | 5.0 | 10.0 | 0.00 | 0.00 | 0.00 | 30 | 1021.9 |
| 20260903173045 | 80 | 313 | 3.0 | 8.0 | 0.00 | 0.00 | 0.00 | 31 | 1022.0 |
| 20260903171546 | 78 | 280 | 3.0 | 13.0 | 0.00 | 0.00 | 0.00 | 32 | 1022.0 |
| 20260903170044 | 78 | 306 | 3.0 | 6.0 | 0.00 | 0.00 | 0.00 | 33 | 1022.1 |
| 20260903164538 | 77 | 292 | 4.0 | 9.0 | 0.00 | 0.00 | 0.00 | 34 | 1022.1 |
| 20260903163029 | 76 | 44 | 4.0 | 11.0 | 0.00 | 0.00 | 0.00 | 35 | 1022.1 |
| 20260903161525 | 76 | 355 | 6.0 | 12.0 | 0.00 | 0.00 | 0.00 | 37 | 1022.1 |
| 20260903160021 | 75 | 336 | 6.0 | 10.0 | 0.00 | 0.00 | 0.00 | 38 | 1022.0 |
| 20260903154517 | 74 | 355 | 4.0 | 13.0 | 0.00 | 0.00 | 0.00 | 39 | 1022.0 |
| 20260903153013 | 73 | 321 | 6.0 | 11.0 | 0.00 | 0.00 | 0.00 | 40 | 1021.9 |
| 20260903151513 | 71 | 5 | 3.0 | 10.0 | 0.00 | 0.00 | 0.00 | 42 | 1021.9 |
| 20260903150010 | 69 | 317 | 4.0 | 9.0 | 0.00 | 0.00 | 0.00 | 44 | 1022.0 |
| 20260903144615 | 68 | 318 | 5.0 | 9.0 | 0.00 | 0.00 | 0.00 | 44 | 1022.0 |
| 20260903143056 | 66 | 313 | 5.0 | 9.0 | 0.00 | 0.00 | 0.00 | 46 | 1022.0 |
| 20260903141550 | 64 | 332 | 3.0 | 11.0 | 0.00 | 0.00 | 0.00 | 48 | 1021.8 |
| 20260903140039 | 62 | 345 | 5.0 | 10.0 | 0.00 | 0.00 | 0.00 | 49 | 1021.7 |
| 20260903134529 | 61 | 325 | 7.0 | 11.0 | 0.00 | 0.00 | 0.00 | 50 | 1021.6 |
| 20260903133025 | 60 | 355 | 4.0 | 8.0 | 0.00 | 0.00 | 0.00 | 51 | 1021.5 |
| 20260903131525 | 59 | 355 | 4.0 | 9.0 | 0.00 | 0.00 | 0.00 | 52 | 1021.4 |
| 20260903130019 | 58 | 355 | 4.0 | 9.0 | 0.00 | 0.00 | 0.00 | 53 | 1021.4 |
| 20260903124517 | 58 | 333 | 2.0 | 6.0 | 0.00 | 0.00 | 0.00 | 54 | 1021.2 |
| 20260903123020 | 57 | 355 | 3.0 | 5.0 | 0.00 | 0.00 | 0.00 | 54 | 1021.3 |
| 20260903121513 | 58 | 5 | 2.0 | 4.0 | 0.00 | 0.00 | 0.00 | 54 | 1021.2 |
| 20260903120013 | 57 | 5 | 0.0 | 1.0 | 0.00 | 0.00 | 0.00 | 53 | 1021.0 |
| 20260903114512 | 57 | 5 | 0.0 | 0.0 | 0.00 | 0.00 | 0.00 | 55 | 1020.9 |
| 20260903113010 | 57 | 5 | 0.0 | 0.0 | 0.00 | 0.00 | 0.00 | 54 | 1021.1 |
| 20260903111507 | 58 | 5 | 0.0 | 0.0 | 0.00 | 0.00 | 0.00 | 53 | 1021.0 |
| 20260903110005 | 59 | 5 | 0.0 | 4.0 | 0.00 | 0.00 | 0.00 | 50 | 1020.9 |
| 20260903104504 | 59 | 5 | 3.0 | 6.0 | 0.00 | 0.00 | 0.00 | 51 | 1020.8 |
| 20260903103003 | 58 | 355 | 3.0 | 5.0 | 0.00 | 0.00 | 0.00 | 51 | 1020.7 |
| 20260903101501 | 59 | 5 | 2.0 | 4.0 | 0.00 | 0.00 | 0.00 | 51 | 1020.7 |
| 20260903094610 | 59 | 5 | 0.0 | 0.0 | 0.00 | 0.00 | 0.00 | 50 | 1020.6 |
| 20260903093056 | 60 | 5 | 2.0 | 4.0 | 0.00 | 0.00 | 0.00 | 49 | 1020.5 |
| 20260903091612 | 61 | 5 | 1.0 | 4.0 | 0.00 | 0.00 | 0.00 | 47 | 1020.5 |
| 20260903084554 | 60 | 53 | 1.0 | 3.0 | 0.00 | 0.00 | 0.00 | 48 | 1020.6 |
| 20260903083055 | 60 | 53 | 0.0 | 3.0 | 0.00 | 0.00 | 0.00 | 48 | 1020.6 |
| 20260903081550 | 60 | 53 | 0.0 | 1.0 | 0.00 | 0.00 | 0.00 | 50 | 1020.5 |
| 20260903080147 | 61 | 53 | 0.0 | 0.0 | 0.00 | 0.00 | 0.00 | 50 | 1020.7 |
| 20260903074549 | 62 | 53 | 0.0 | 1.0 | 0.00 | 0.00 | 0.00 | 48 | 1020.7 |
| 20260903073044 | 63 | 53 | 0.0 | 4.0 | 0.00 | 0.00 | 0.00 | 47 | 1020.6 |
| 20260903071544 | 62 | 53 | 0.0 | 1.0 | 0.00 | 0.00 | 0.00 | 48 | 1020.6 |
| 20260903070141 | 63 | 53 | 0.0 | 1.0 | 0.00 | 0.00 | 0.00 | 48 | 1020.6 |
| 20260903064540 | 63 | 53 | 0.0 | 1.0 | 0.00 | 0.00 | 0.00 | 49 | 1020.6 |
| 20260903063037 | 64 | 53 | 0.0 | 3.0 | 0.00 | 0.00 | 0.00 | 48 | 1020.6 |
| 20260903061538 | 64 | 53 | 0.0 | 2.0 | 0.00 | 0.00 | 0.00 | 48 | 1020.7 |
| 20260903060040 | 65 | 53 | 0.0 | 1.0 | 0.00 | 0.00 | 0.00 | 48 | 1020.8 |
| 20260903054531 | 65 | 53 | 0.0 | 3.0 | 0.00 | 0.00 | 0.00 | 47 | 1020.8 |
| 20260903053039 | 66 | 53 | 0.0 | 1.0 | 0.00 | 0.00 | 0.00 | 47 | 1020.7 |
| 20260903051530 | 66 | 53 | 0.0 | 3.0 | 0.00 | 0.00 | 0.00 | 46 | 1020.7 |
| 20260903050030 | 67 | 53 | 0.0 | 3.0 | 0.00 | 0.00 | 0.00 | 46 | 1020.7 |
| 20260903044529 | 67 | 53 | 0.0 | 3.0 | 0.00 | 0.00 | 0.00 | 45 | 1020.7 |
| 20260903043034 | 68 | 53 | 3.0 | 5.0 | 0.00 | 0.00 | 0.00 | 45 | 1020.8 |
| 20260903041531 | 68 | 209 | 0.0 | 2.0 | 0.00 | 0.00 | 0.00 | 45 | 1020.9 |
| 20260903040034 | 70 | 208 | 0.0 | 0.0 | 0.00 | 0.00 | 0.00 | 42 | 1020.8 |
| 20260903034527 | 71 | 208 | 0.0 | 0.0 | 0.00 | 0.00 | 0.00 | 40 | 1020.6 |
| 20260903033027 | 71 | 208 | 0.0 | 0.0 | 0.00 | 0.00 | 0.00 | 39 | 1020.4 |
| 20260903031526 | 71 | 208 | 0.0 | 0.0 | 0.00 | 0.00 | 0.00 | 40 | 1020.3 |
| 20260903030026 | 72 | 208 | 0.0 | 0.0 | 0.00 | 0.00 | 0.00 | 38 | 1020.1 |
| 20260903024526 | 72 | 208 | 0.0 | 0.0 | 0.00 | 0.00 | 0.00 | 38 | 1020.0 |
| 20260903023026 | 73 | 208 | 0.0 | 0.0 | 0.00 | 0.00 | 0.00 | 35 | 1019.9 |
| 20260903021525 | 74 | 208 | 0.0 | 0.0 | 0.00 | 0.00 | 0.00 | 34 | 1019.8 |
| 20260903020024 | 75 | 208 | 0.0 | 0.0 | 0.00 | 0.00 | 0.00 | 31 | 1019.7 |
| 20260903014524 | 77 | 208 | 0.0 | 2.0 | 0.00 | 0.00 | 0.00 | 30 | 1019.7 |
| 20260903013026 | 78 | 208 | 0.0 | 3.0 | 0.00 | 0.00 | 0.00 | 28 | 1019.6 |
| 20260903011526 | 79 | 208 | 2.0 | 5.0 | 0.00 | 0.00 | 0.00 | 28 | 1019.7 |
| 20260903010022 | 80 | 208 | 4.0 | 9.0 | 0.00 | 0.00 | 0.00 | 27 | 1019.6 |
| 20260903004524 | 81 | 217 | 6.0 | 14.0 | 0.00 | 0.00 | 0.00 | 26 | 1019.7 |
| 20260903003021 | 82 | 246 | 8.0 | 14.0 | 0.00 | 0.00 | 0.00 | 24 | 1019.7 |
| 20260903001521 | 83 | 237 | 9.0 | 14.0 | 0.00 | 0.00 | 0.00 | 24 | 1019.8 |
| 20260903000021 | 84 | 233 | 10.0 | 12.0 | 0.00 | 0.00 | 0.00 | 23 | 1019.8 |
| 20260902234518 | 85 | 224 | 6.0 | 15.0 | 0.00 | 0.00 | 0.00 | 22 | 1019.9 |
| 20260902233018 | 84 | 234 | 7.0 | 13.0 | 0.00 | 0.00 | 0.00 | 24 | 1020.0 |
| 20260902231515 | 84 | 210 | 4.0 | 14.0 | 0.00 | 0.00 | 0.00 | 23 | 1020.1 |
| 20260902230014 | 86 | 259 | 9.0 | 18.0 | 0.00 | 0.00 | 0.00 | 22 | 1020.2 |
| 20260902224514 | 87 | 261 | 9.0 | 18.0 | 0.00 | 0.00 | 0.00 | 23 | 1020.3 |
| 20260902223013 | 87 | 274 | 8.0 | 16.0 | 0.00 | 0.00 | 0.00 | 22 | 1020.3 |
| 20260902221518 | 87 | 273 | 5.0 | 14.0 | 0.00 | 0.00 | 0.00 | 22 | 1020.4 |
| 20260902220019 | 87 | 219 | 12.0 | 22.0 | 0.00 | 0.00 | 0.00 | 23 | 1020.5 |
| 20260902214509 | 88 | 235 | 9.0 | 19.0 | 0.00 | 0.00 | 0.00 | 22 | 1020.5 |
| 20260902213008 | 88 | 249 | 8.0 | 17.0 | 0.00 | 0.00 | 0.00 | 22 | 1020.6 |
| 20260902211506 | 88 | 264 | 12.0 | 22.0 | 0.00 | 0.00 | 0.00 | 21 | 1020.8 |
| 20260902210004 | 87 | 259 | 11.0 | 19.0 | 0.00 | 0.00 | 0.00 | 21 | 1021.0 |
| 20260902204602 | 86 | 252 | 8.0 | 19.0 | 0.00 | 0.00 | 0.00 | 23 | 1021.1 |
| 20260902203058 | 87 | 220 | 6.0 | 19.0 | 0.00 | 0.00 | 0.00 | 23 | 1021.4 |